Weather in Kritovo

Russia / Krasnoyarsk Krai     56°14′26″N   90°00′57″E
temp.,
°C
wind,
m/s
gust,
m/s
humid.,
%
clouds,
%
prec.,
mm/h
press.,
hPa
HPBL,
m
20 may, fri
fri2001:00+17wsw91776100 0.6 10051000
04:00+15wsw71387100 0.3 1007851
07:00+15w71367100 0.4 10101009
10:00+19w8112944 0.0 10122200
13:00+21wsw8112796 0.0 10132726
16:00+22w7122613 0.0 10123363
19:00+20w693423 0.0 10122182
22:00+15sw224573 0.0 101324
21 may, sat
sat2101:00+14s224498 0.0 101215
04:00+13sw4115483 0.2 1011287
07:00+14sw51357100 0.2 10111022
10:00+17wsw61353100 0.1 10111699
13:00+20w91434100 0.1 10112361
16:00+20w8113082 0.0 10102127
19:00+19w5103775 0.0 10101897
22:00+14wsw225575 0.0 101117
22 may, sun
sun2201:00+13s22615 0.0 101013
04:00+12s226514 0.0 100823
07:00+15s016332 0.0 1008126
10:00+22wsw13464 0.0 1006605
13:00+26nw34345 0.0 10051944
16:00+27nnw443115 0.0 10042354
19:00+23ne5739100 0.0 1005583
22:00+17ene61154100 0.0 1007437
23 may, mon
mon2301:00+15e395697 0.0 1009297
04:00+12e36645 0.0 1010121
07:00+15ese365916 0.0 1012232
10:00+21sw4552100 0.0 10131125
13:00+18w81066100 0.3 10171252
16:00+12wsw2973100 1.3 1021522
19:00+14w3750100 1.4 1022391
22:00+10sw22600 0.0 102317
24 may, tue
tue2401:00+9ssw226514 0.0 102315
04:00+7sse22704 0.0 102312
07:00+11se2260100 0.0 1022115
10:00+17se3437100 0.0 1021823
13:00+21e23285 0.0 10181228
16:00+23ne22310 0.0 10171505
19:00+22nne3439100 0.0 1016503
22:00+16ne2244100 0.0 101719